| time (UTC) | temp C | wind direction | speed KPH | gust KPH | rain 1hr cm | rain 24hr cm | rain mn cm | humidity % | barometer mb |
| 20260504024531 | 16 | 0 | 0.0 | 4.8 | 0.00 | 0.00 | 0.00 | 74 | 1018.8 |
| 20260504024019 | 16 | 0 | 0.0 | 4.8 | 0.00 | 0.00 | 0.00 | 74 | 1018.9 |
| 20260504023513 | 16 | 0 | 0.0 | 6.4 | 0.00 | 0.00 | 0.00 | 73 | 1018.7 |
| 20260504023032 | 16 | 254 | 0.0 | 6.4 | 0.00 | 0.00 | 0.00 | 73 | 1018.7 |
| 20260504022515 | 16 | 0 | 0.0 | 4.8 | 0.00 | 0.00 | 0.00 | 72 | 1018.7 |
| 20260504022014 | 17 | 240 | 1.6 | 6.4 | 0.00 | 0.00 | 0.00 | 71 | 1018.8 |
| 20260504021536 | 17 | 247 | 1.6 | 6.4 | 0.00 | 0.00 | 0.00 | 70 | 1018.7 |
| 20260504021014 | 17 | 0 | 1.6 | 6.4 | 0.00 | 0.00 | 0.00 | 70 | 1018.7 |
| 20260504020514 | 17 | 238 | 1.6 | 9.7 | 0.00 | 0.00 | 0.00 | 70 | 1018.6 |
| 20260504020037 | 17 | 0 | 3.2 | 9.7 | 0.00 | 0.00 | 0.00 | 69 | 1018.5 |
| 20260504015517 | 16 | 221 | 3.2 | 6.4 | 0.00 | 0.00 | 0.00 | 71 | 1018.5 |
| 20260504015017 | 16 | 255 | 0.0 | 4.8 | 0.00 | 0.00 | 0.00 | 71 | 1018.5 |
| 20260504014529 | 16 | 0 | 0.0 | 1.6 | 0.00 | 0.00 | 0.00 | 71 | 1018.5 |
| 20260504014013 | 16 | 0 | 0.0 | 0.0 | 0.00 | 0.00 | 0.00 | 71 | 1018.4 |
| 20260504013516 | 16 | 0 | 0.0 | 3.2 | 0.00 | 0.00 | 0.00 | 71 | 1018.3 |
| 20260504013034 | 16 | 0 | 0.0 | 3.2 | 0.00 | 0.00 | 0.00 | 71 | 1018.3 |
| 20260504012517 | 16 | 0 | 0.0 | 3.2 | 0.00 | 0.00 | 0.00 | 70 | 1018.2 |
| 20260504012020 | 16 | 0 | 0.0 | 1.6 | 0.00 | 0.00 | 0.00 | 69 | 1018.1 |
| 20260504011532 | 17 | 0 | 0.0 | 6.4 | 0.00 | 0.00 | 0.00 | 68 | 1018.0 |
| 20260504011014 | 17 | 0 | 0.0 | 6.4 | 0.00 | 0.00 | 0.00 | 67 | 1018.0 |
| 20260504010515 | 17 | 0 | 0.0 | 3.2 | 0.00 | 0.00 | 0.00 | 66 | 1017.9 |
| 20260504010031 | 17 | 0 | 0.0 | 6.4 | 0.00 | 0.00 | 0.00 | 65 | 1017.9 |
| 20260504005518 | 18 | 248 | 0.0 | 6.4 | 0.00 | 0.00 | 0.00 | 63 | 1017.9 |
| 20260504005015 | 18 | 360 | 1.6 | 6.4 | 0.00 | 0.00 | 0.00 | 63 | 1018.0 |
| 20260504004534 | 18 | 360 | 3.2 | 6.4 | 0.00 | 0.00 | 0.00 | 64 | 1017.8 |
| 20260504004014 | 18 | 360 | 0.0 | 4.8 | 0.00 | 0.00 | 0.00 | 64 | 1017.7 |
| 20260504003514 | 18 | 0 | 0.0 | 6.4 | 0.00 | 0.00 | 0.00 | 63 | 1017.7 |
| 20260504003030 | 18 | 0 | 1.6 | 8.0 | 0.00 | 0.00 | 0.00 | 61 | 1017.7 |
| 20260504002539 | 19 | 0 | 1.6 | 12.9 | 0.00 | 0.00 | 0.00 | 60 | 1017.7 |
| 20260504002018 | 19 | 0 | 1.6 | 12.9 | 0.00 | 0.00 | 0.00 | 58 | 1017.6 |
| 20260504001533 | 19 | 360 | 3.2 | 8.0 | 0.00 | 0.00 | 0.00 | 57 | 1017.6 |
| 20260504001018 | 20 | 360 | 3.2 | 12.9 | 0.00 | 0.00 | 0.00 | 58 | 1017.6 |
| 20260504000518 | 20 | 360 | 3.2 | 12.9 | 0.00 | 0.00 | 0.00 | 56 | 1017.5 |
| 20260504000037 | 20 | 360 | 3.2 | 16.1 | 0.00 | 0.00 | 0.00 | 56 | 1017.4 |
| 20260503235516 | 20 | 244 | 6.4 | 16.1 | 0.00 | 0.00 | 0.00 | 55 | 1017.5 |
| 20260503235015 | 21 | 254 | 3.2 | 14.5 | 0.00 | 0.00 | 0.00 | 55 | 1017.5 |
| 20260503234545 | 21 | 282 | 6.4 | 14.5 | 0.00 | 0.00 | 0.00 | 53 | 1017.5 |
| 20260503234019 | 22 | 242 | 3.2 | 12.9 | 0.00 | 0.00 | 0.00 | 51 | 1017.5 |
| 20260503233518 | 23 | 249 | 4.8 | 12.9 | 0.00 | 0.00 | 0.00 | 46 | 1017.5 |
| 20260503233034 | 24 | 228 | 3.2 | 6.4 | 0.00 | 0.00 | 0.00 | 39 | 1017.5 |
| 20260503232517 | 24 | 297 | 3.2 | 6.4 | 0.00 | 0.00 | 0.00 | 37 | 1017.5 |
| 20260503232017 | 24 | 49 | 1.6 | 4.8 | 0.00 | 0.00 | 0.00 | 36 | 1017.5 |
| 20260503231532 | 24 | 48 | 0.0 | 8.0 | 0.00 | 0.00 | 0.00 | 36 | 1017.5 |
| 20260503231022 | 25 | 0 | 1.6 | 8.0 | 0.00 | 0.00 | 0.00 | 37 | 1017.6 |
| 20260503230520 | 25 | 261 | 0.0 | 9.7 | 0.00 | 0.00 | 0.00 | 37 | 1017.5 |
| 20260503230039 | 24 | 0 | 1.6 | 9.7 | 0.00 | 0.00 | 0.00 | 36 | 1017.6 |
| 20260503225521 | 24 | 244 | 3.2 | 11.3 | 0.00 | 0.00 | 0.00 | 36 | 1017.5 |
| 20260503225018 | 24 | 0 | 3.2 | 11.3 | 0.00 | 0.00 | 0.00 | 37 | 1017.5 |
| 20260503224536 | 24 | 248 | 4.8 | 11.3 | 0.00 | 0.00 | 0.00 | 36 | 1017.5 |
| 20260503224015 | 24 | 271 | 3.2 | 14.5 | 0.00 | 0.00 | 0.00 | 35 | 1017.5 |
| 20260503223521 | 24 | 26 | 3.2 | 14.5 | 0.00 | 0.00 | 0.00 | 35 | 1017.5 |
| 20260503223038 | 25 | 16 | 1.6 | 11.3 | 0.00 | 0.00 | 0.00 | 36 | 1017.5 |
| 20260503222519 | 25 | 0 | 1.6 | 11.3 | 0.00 | 0.00 | 0.00 | 33 | 1017.6 |
| 20260503222022 | 25 | 279 | 1.6 | 12.9 | 0.00 | 0.00 | 0.00 | 35 | 1017.5 |
| 20260503221536 | 25 | 76 | 4.8 | 12.9 | 0.00 | 0.00 | 0.00 | 35 | 1017.5 |
| 20260503221020 | 25 | 257 | 1.6 | 12.9 | 0.00 | 0.00 | 0.00 | 35 | 1017.5 |
| 20260503220522 | 24 | 285 | 3.2 | 14.5 | 0.00 | 0.00 | 0.00 | 35 | 1017.6 |
| 20260503220045 | 24 | 67 | 3.2 | 14.5 | 0.00 | 0.00 | 0.00 | 35 | 1017.7 |
| 20260503215520 | 24 | 9 | 8.0 | 14.5 | 0.00 | 0.00 | 0.00 | 35 | 1017.7 |
| 20260503215017 | 25 | 19 | 3.2 | 9.7 | 0.00 | 0.00 | 0.00 | 35 | 1017.7 |
| 20260503214531 | 25 | 51 | 3.2 | 9.7 | 0.00 | 0.00 | 0.00 | 37 | 1017.7 |
| 20260503214017 | 24 | 248 | 3.2 | 9.7 | 0.00 | 0.00 | 0.00 | 35 | 1017.8 |
| 20260503213517 | 24 | 218 | 1.6 | 14.5 | 0.00 | 0.00 | 0.00 | 36 | 1017.8 |
| 20260503213037 | 23 | 63 | 4.8 | 14.5 | 0.00 | 0.00 | 0.00 | 35 | 1017.8 |
| 20260503212518 | 23 | 51 | 4.8 | 17.7 | 0.00 | 0.00 | 0.00 | 36 | 1017.9 |
| 20260503212018 | 24 | 23 | 6.4 | 17.7 | 0.00 | 0.00 | 0.00 | 35 | 1018.0 |
| 20260503211536 | 24 | 38 | 3.2 | 17.7 | 0.00 | 0.00 | 0.00 | 37 | 1018.0 |
| 20260503211020 | 23 | 0 | 4.8 | 14.5 | 0.00 | 0.00 | 0.00 | 34 | 1018.0 |
| 20260503210519 | 23 | 90 | 3.2 | 12.9 | 0.00 | 0.00 | 0.00 | 36 | 1018.1 |
| 20260503210037 | 23 | 24 | 4.8 | 14.5 | 0.00 | 0.00 | 0.00 | 35 | 1018.2 |
| 20260503205519 | 23 | 90 | 4.8 | 14.5 | 0.00 | 0.00 | 0.00 | 37 | 1018.2 |
| 20260503205019 | 24 | 26 | 8.0 | 14.5 | 0.00 | 0.00 | 0.00 | 36 | 1018.3 |
| 20260503204534 | 25 | 30 | 4.8 | 14.5 | 0.00 | 0.00 | 0.00 | 33 | 1018.4 |
| 20260503204017 | 24 | 5 | 4.8 | 14.5 | 0.00 | 0.00 | 0.00 | 33 | 1018.5 |
| 20260503203518 | 24 | 275 | 4.8 | 14.5 | 0.00 | 0.00 | 0.00 | 34 | 1018.7 |
| 20260503203033 | 24 | 253 | 6.4 | 14.5 | 0.00 | 0.00 | 0.00 | 33 | 1018.7 |
| 20260503202518 | 24 | 256 | 3.2 | 16.1 | 0.00 | 0.00 | 0.00 | 34 | 1018.7 |
| 20260503202018 | 24 | 220 | 8.0 | 17.7 | 0.00 | 0.00 | 0.00 | 34 | 1018.8 |
| 20260503201534 | 24 | 17 | 6.4 | 19.3 | 0.00 | 0.00 | 0.00 | 33 | 1018.9 |
| 20260503201018 | 23 | 352 | 4.8 | 19.3 | 0.00 | 0.00 | 0.00 | 34 | 1018.9 |
| 20260503200517 | 23 | 24 | 6.4 | 20.9 | 0.00 | 0.00 | 0.00 | 32 | 1018.9 |
| 20260503200043 | 24 | 36 | 6.4 | 20.9 | 0.00 | 0.00 | 0.00 | 32 | 1019.1 |
| 20260503195514 | 23 | 253 | 9.7 | 20.9 | 0.00 | 0.00 | 0.00 | 32 | 1019.1 |
| 20260503195018 | 24 | 261 | 6.4 | 19.3 | 0.00 | 0.00 | 0.00 | 32 | 1019.3 |
| 20260503194538 | 24 | 250 | 4.8 | 19.3 | 0.00 | 0.00 | 0.00 | 32 | 1019.3 |
| 20260503194019 | 24 | 234 | 1.6 | 16.1 | 0.00 | 0.00 | 0.00 | 35 | 1019.4 |
| 20260503193518 | 24 | 275 | 4.8 | 16.1 | 0.00 | 0.00 | 0.00 | 32 | 1019.5 |
| 20260503193036 | 23 | 258 | 3.2 | 12.9 | 0.00 | 0.00 | 0.00 | 32 | 1019.6 |
| 20260503192518 | 23 | 9 | 4.8 | 12.9 | 0.00 | 0.00 | 0.00 | 34 | 1019.6 |
| 20260503192017 | 23 | 5 | 4.8 | 20.9 | 0.00 | 0.00 | 0.00 | 35 | 1019.6 |
| 20260503191534 | 23 | 142 | 8.0 | 20.9 | 0.00 | 0.00 | 0.00 | 34 | 1019.8 |
| 20260503191018 | 23 | 241 | 9.7 | 19.3 | 0.00 | 0.00 | 0.00 | 33 | 1019.8 |
| 20260503190518 | 23 | 227 | 6.4 | 19.3 | 0.00 | 0.00 | 0.00 | 34 | 1020.0 |
| 20260503190037 | 23 | 209 | 8.0 | 19.3 | 0.00 | 0.00 | 0.00 | 33 | 1020.0 |
| 20260503185518 | 23 | 47 | 8.0 | 19.3 | 0.00 | 0.00 | 0.00 | 36 | 1020.1 |
| 20260503185019 | 23 | 242 | 6.4 | 22.5 | 0.00 | 0.00 | 0.00 | 35 | 1020.2 |
| 20260503184542 | 23 | 111 | 8.0 | 22.5 | 0.00 | 0.00 | 0.00 | 38 | 1020.3 |
| 20260503184017 | 22 | 269 | 11.3 | 24.1 | 0.00 | 0.00 | 0.00 | 36 | 1020.4 |
| 20260503183518 | 23 | 292 | 8.0 | 24.1 | 0.00 | 0.00 | 0.00 | 36 | 1020.5 |
| 20260503183050 | 22 | 254 | 8.0 | 24.1 | 0.00 | 0.00 | 0.00 | 36 | 1020.4 |
| 20260503182518 | 22 | 267 | 9.7 | 27.4 | 0.00 | 0.00 | 0.00 | 35 | 1020.5 |
| 20260503182018 | 22 | 279 | 11.3 | 27.4 | 0.00 | 0.00 | 0.00 | 36 | 1020.5 |
| 20260503181532 | 23 | 360 | 9.7 | 27.4 | 0.00 | 0.00 | 0.00 | 36 | 1020.6 |
| 20260503181015 | 23 | 270 | 4.8 | 19.3 | 0.00 | 0.00 | 0.00 | 37 | 1020.7 |
| 20260503180517 | 23 | 253 | 8.0 | 19.3 | 0.00 | 0.00 | 0.00 | 36 | 1020.8 |
| 20260503180034 | 23 | 172 | 6.4 | 19.3 | 0.00 | 0.00 | 0.00 | 36 | 1020.9 |
| 20260503175515 | 23 | 118 | 4.8 | 12.9 | 0.00 | 0.00 | 0.00 | 36 | 1020.9 |
| 20260503175020 | 23 | 261 | 3.2 | 16.1 | 0.00 | 0.00 | 0.00 | 38 | 1020.9 |
| 20260503174531 | 23 | 229 | 6.4 | 16.1 | 0.00 | 0.00 | 0.00 | 39 | 1020.9 |
| 20260503174015 | 22 | 98 | 4.8 | 16.1 | 0.00 | 0.00 | 0.00 | 38 | 1020.9 |
| 20260503173517 | 22 | 42 | 6.4 | 16.1 | 0.00 | 0.00 | 0.00 | 35 | 1020.9 |
| 20260503173030 | 22 | 350 | 4.8 | 14.5 | 0.00 | 0.00 | 0.00 | 36 | 1021.0 |
| 20260503172515 | 23 | 44 | 4.8 | 16.1 | 0.00 | 0.00 | 0.00 | 40 | 1021.0 |
| 20260503172014 | 22 | 236 | 4.8 | 16.1 | 0.00 | 0.00 | 0.00 | 38 | 1021.1 |
| 20260503171532 | 22 | 271 | 4.8 | 19.3 | 0.00 | 0.00 | 0.00 | 39 | 1021.1 |
| 20260503171016 | 22 | 352 | 8.0 | 24.1 | 0.00 | 0.00 | 0.00 | 40 | 1021.3 |
| 20260503170517 | 22 | 71 | 8.0 | 24.1 | 0.00 | 0.00 | 0.00 | 39 | 1021.2 |
| 20260503150517 | 21 | 38 | 6.4 | 14.5 | 0.00 | 0.00 | 0.00 | 39 | 1021.8 |
| 20260503131017 | 16 | 44 | 1.6 | 8.0 | 0.00 | 0.00 | 0.00 | 68 | 1021.2 |
| 20260503130517 | 16 | 0 | 3.2 | 8.0 | 0.00 | 0.00 | 0.00 | 69 | 1021.2 |
| 20260503110518 | 7 | 0 | 0.0 | 0.0 | 0.00 | 0.00 | 0.00 | 95 | 1020.2 |
| 20260503081554 | 8 | 0 | 0.0 | 0.0 | 0.00 | 0.66 | 0.00 | 88 | 1019.2 |
| 20260503081018 | 8 | 0 | 0.0 | 0.0 | 0.00 | 0.66 | 0.00 | 88 | 1019.2 |
| 20260503080516 | 9 | 0 | 0.0 | 0.0 | 0.00 | 0.66 | 0.00 | 88 | 1019.2 |
| 20260503072517 | 10 | 0 | 0.0 | 0.0 | 0.00 | 1.19 | 0.00 | 89 | 1018.7 |
| 20260503072016 | 10 | 0 | 0.0 | 0.0 | 0.00 | 1.19 | 0.00 | 88 | 1018.7 |
| 20260503071534 | 9 | 0 | 0.0 | 0.0 | 0.00 | 1.19 | 0.00 | 88 | 1018.7 |
| 20260503071015 | 10 | 0 | 0.0 | 0.0 | 0.00 | 1.19 | 0.00 | 89 | 1018.7 |
| 20260503070516 | 10 | 0 | 0.0 | 0.0 | 0.00 | 1.19 | 0.00 | 88 | 1018.8 |
| 20260503055015 | 12 | 0 | 0.0 | 0.0 | 0.00 | 1.83 | 0.00 | 72 | 1018.8 |
| 20260503054543 | 12 | 0 | 0.0 | 0.0 | 0.00 | 1.83 | 0.00 | 73 | 1018.7 |
| 20260503054018 | 12 | 0 | 0.0 | 3.2 | 0.00 | 1.83 | 0.00 | 73 | 1018.7 |
| 20260503053516 | 12 | 0 | 0.0 | 3.2 | 0.00 | 1.83 | 0.00 | 73 | 1018.6 |
| 20260503053034 | 12 | 32 | 0.0 | 3.2 | 0.00 | 1.83 | 0.00 | 73 | 1018.7 |
| 20260503052516 | 12 | 0 | 0.0 | 3.2 | 0.00 | 1.83 | 0.00 | 74 | 1018.7 |
| 20260503052017 | 12 | 27 | 0.0 | 3.2 | 0.00 | 1.83 | 0.00 | 74 | 1018.6 |
| 20260503051535 | 12 | 0 | 0.0 | 0.0 | 0.00 | 1.83 | 0.00 | 75 | 1018.6 |
| 20260503051016 | 12 | 0 | 0.0 | 0.0 | 0.00 | 1.83 | 0.00 | 75 | 1018.6 |
| 20260503050516 | 12 | 0 | 0.0 | 0.0 | 0.00 | 1.83 | 0.00 | 74 | 1018.6 |
| 20260503050038 | 12 | 0 | 0.0 | 3.2 | 0.00 | 1.83 | 0.00 | 75 | 1018.6 |
| 20260503045518 | 12 | 0 | 0.0 | 4.8 | 0.00 | 1.83 | 1.83 | 77 | 1018.5 |
| 20260503045020 | 12 | 36 | 0.0 | 4.8 | 0.00 | 1.83 | 1.83 | 79 | 1018.5 |
| 20260503044532 | 12 | 0 | 0.0 | 4.8 | 0.00 | 1.83 | 1.83 | 80 | 1018.4 |
| 20260503044018 | 12 | 37 | 1.6 | 3.2 | 0.00 | 1.83 | 1.83 | 82 | 1018.4 |
| 20260503043518 | 11 | 30 | 0.0 | 3.2 | 0.00 | 1.83 | 1.83 | 84 | 1018.4 |
| 20260503043033 | 11 | 0 | 0.0 | 0.0 | 0.00 | 1.83 | 1.83 | 86 | 1018.4 |
| 20260503042519 | 11 | 0 | 0.0 | 0.0 | 0.00 | 1.83 | 1.83 | 87 | 1018.4 |
| 20260503042018 | 11 | 0 | 0.0 | 0.0 | 0.00 | 1.83 | 1.83 | 87 | 1018.4 |
| 20260503041539 | 11 | 0 | 0.0 | 0.0 | 0.00 | 1.83 | 1.83 | 88 | 1018.5 |
| 20260503041017 | 11 | 0 | 0.0 | 0.0 | 0.00 | 1.83 | 1.83 | 88 | 1018.4 |
| 20260503040517 | 11 | 0 | 0.0 | 0.0 | 0.00 | 1.83 | 1.83 | 88 | 1018.3 |
| 20260503040041 | 11 | 0 | 0.0 | 0.0 | 0.00 | 1.83 | 1.83 | 88 | 1018.3 |
| 20260503035518 | 11 | 0 | 0.0 | 0.0 | 0.00 | 2.13 | 1.83 | 88 | 1018.2 |
| 20260503035018 | 11 | 0 | 0.0 | 0.0 | 0.00 | 2.13 | 1.83 | 88 | 1018.2 |
| 20260503034538 | 11 | 0 | 0.0 | 0.0 | 0.00 | 2.13 | 1.83 | 87 | 1018.2 |
| 20260503034017 | 11 | 0 | 0.0 | 0.0 | 0.00 | 2.13 | 1.83 | 86 | 1018.1 |
| 20260503033517 | 11 | 0 | 0.0 | 0.0 | 0.00 | 2.13 | 1.83 | 86 | 1018.0 |
| 20260503033032 | 11 | 0 | 0.0 | 0.0 | 0.00 | 2.13 | 1.83 | 84 | 1018.0 |
| 20260503032518 | 12 | 0 | 0.0 | 0.0 | 0.00 | 2.13 | 1.83 | 83 | 1018.0 |
| 20260503032022 | 12 | 0 | 0.0 | 0.0 | 0.00 | 2.13 | 1.83 | 81 | 1017.9 |
| 20260503031542 | 12 | 0 | 0.0 | 0.0 | 0.00 | 2.13 | 1.83 | 80 | 1017.9 |
| 20260503031020 | 12 | 0 | 0.0 | 0.0 | 0.00 | 2.13 | 1.83 | 80 | 1017.8 |
| 20260503030519 | 12 | 0 | 0.0 | 0.0 | 0.00 | 2.13 | 1.83 | 80 | 1017.8 |
| 20260503030031 | 13 | 0 | 0.0 | 0.0 | 0.00 | 2.13 | 1.83 | 80 | 1017.7 |
| 20260503025527 | 13 | 0 | 0.0 | 0.0 | 0.00 | 2.57 | 1.83 | 80 | 1017.7 |
| 20260503025018 | 13 | 0 | 0.0 | 0.0 | 0.00 | 2.57 | 1.83 | 79 | 1017.7 |